Regional Weather Roundup
Issued by NWS Jackson, KY

Home | Current Version | Previous Version | Graphics & Text | Print | Product List | Glossary On
Versions: 1 2 3 4 5 6 7 8 9 10 11 12 13 14 15 16 17 18 19 20 21 22 23 24 25 26 27
000
ASUS43 KJKL 270510
RWRJKL

EAST KENTUCKY HOURLY WEATHER ROUNDUP
NATIONAL WEATHER SERVICE JACKSON KY
100 AM EDT SAT MAY 27 2017

NOTE: "FAIR" INDICATES FEW OR NO CLOUDS BELOW 12,000 FEET WITH
NO SIGNIFICANT WEATHER AND/OR OBSTRUCTIONS TO VISIBILITY.

* THESE REPORTS ARE NOT UNDER NWS QUALITY CONTROL AND MAY NOT
  REPORT WEATHER SUCH AS PRECIPITATION AND FOG.

KYZ079-080-083-085-087-088-110-112-115-119-120-270600
...EASTERN KENTUCKY...

CITY           SKY/WX    TMP DP  RH WIND       PRES   REMARKS
JACKSON        CLOUDY    68  59  73 CALM      29.96S
LONDON         CLOUDY    70  59  68 S7        29.96S
SOMERSET*      MOCLDY    68  59  73 S6        29.95S
MONTICELLO*    CLOUDY    71  62  73 W13       29.96F
WILLIAMSBURG*  MOCLDY    68  63  83 S5        29.96F
MIDDLESBORO*   CLOUDY    64  62  94 CALM      30.00F
HARLAN APT*    CLOUDY    63  59  88 CALM      30.01S
PIKE CO APT*   CLOUDY    66  57  73 SE5       29.98S
BIG SANDY APT* CLOUDY    67  58  70 S3        29.97S
MOREHEAD APT*  CLOUDY    68  59  73 S7        29.93F
ASHLAND*       CLOUDY    64  61  88 CALM      29.88F
$$

KYZ035-036-041-042-044-050-067-078-099-270600
...CENTRAL KENTUCKY...

CITY           SKY/WX    TMP DP  RH WIND       PRES   REMARKS
MT STERLING*   CLOUDY    70  61  73 SW6       29.92F
FLEMING/MASON* CLOUDY    69  60  73 S10G16    29.87F
DANVILLE*      CLOUDY    68  63  83 S3        29.92F
LEXINGTON      CLOUDY    73  62  68 S10       29.89F
FRANKFORT      CLOUDY    74  61  63 S8        29.86F
LOUISVILLE     CLOUDY    77  62  59 S10       29.85F
LEBANON*         N/A     73  63  68 S8        29.90S
GLASGOW*       CLOUDY    74  59  60 SW5       29.91F
BOWLING GREEN  CLOUDY    77  62  59 SW7       29.91S
$$

KYZ091>093-OHZ055-061-077-WVZ005-015-034-035-042-270600
...SOUTHERN OHIO/WEST VIRGINIA...

CITY           SKY/WX    TMP DP  RH WIND       PRES   REMARKS
COVINGTON      PTCLDY    68  62  81 S12       29.82F
COLUMBUS       TSTM      64  63  96 SW10      29.90F FOG
DAYTON         CLOUDY    65  63  93 S10       29.85S
WILMINGTON     CLOUDY    65  63  93 CALM      29.87F
HUNTINGTON     CLOUDY    67  56  67 S8        29.91S
CHARLESTON     CLOUDY    61  57  87 CALM      29.93S
PINEVILLE*     PTCLDY    55  54  97 MISG      30.05S
BECKLEY        CLEAR     57  51  80 S3        30.01S
BLUEFIELD      CLEAR     57  51  80 W7        30.04R
LOGAN CO APT*  CLOUDY    63  57  82 CALM      29.98R
$$

VAZ002-007-008-TNZ017-027-036-066-071-270600
...SOUTHWEST VIRGINIA/EAST TENNESSEE...

CITY           SKY/WX    TMP DP  RH WIND       PRES   REMARKS
WISE*          CLOUDY    63  55  77 CALM      30.07S
JONESVILLE*    MOCLDY    63  59  88 CALM      30.03S
ABINGDON*      PTCLDY    58  56  93 CALM      30.06R
BRISTOL        PTCLDY    59  57  93 CALM      30.03S
MORRISTOWN*    CLOUDY    66  61  82 CALM      30.01F
SEVIERVILLE*   CLOUDY    63  59  88 CALM      30.01R
KNOXVILLE      MOCLDY    69  60  73 S3        30.00R
LAFOLLETTE*    CLOUDY    64  63  94 CALM      30.02F
OAK RIDGE      CLOUDY    67  62  84 CALM      30.01S
CROSSVILLE     PTCLDY    67  58  72 CALM      30.03S
NASHVILLE      CLOUDY    73  63  70 S7        29.93F
$$

...KEY TO REMARKS...
VSB - VISIBILITY IN MILES
WCI - WIND CHILL INDEX
HX  - HEAT INDEX

$$




USA.gov is the U.S. government's official web portal to all federal, state and local government web resources and services.